[[{"header":{"parameterUnit":"m.s-1","parameterCategory":2,"la1":30.2991,"la2":30.254,"lo1":-89.0895,"lo2":-89.0444,"dy":0.0017,"dx":0.0017,"nx":28,"ny":28,"refTime":"2023-08-17T09:00:00:Z","depth":"0","parameterNumber":2,"parameterNumberName":"U-component_of_CURRENTS"},"data":[0,0,0,0,0,0,0,0,0,0,0,0,0,0,0,0,0,0,0,0,0,0,0,0,0,0,0,0,0,0,0,0,0,0,0,0,0,0,0,0,0,0,0,0,0,0,0,0,0,0,0,0,0,0,0,0,0,0,0.176,0.1762,0,0.1883,0.1884,0.1885,0.1848,0.1846,0.1843,0.1841,0.1982,0.1988,0.1994,0,0,0,0,0,0,0,0,0,0,0,0,0,0.1665,0.1666,0.176,0.1762,0.1764,0.1883,0.1884,0.1886,0.1848,0.1845,0.1843,0.184,0.198,0.1987,0.1994,0,0,0,0,0,0,0,0,0,0,0,0,0,0.1735,0.1666,0.1759,0.1762,0.1764,0.1883,0.1884,0.1886,0.1849,0.1845,0.1842,0.1839,0.1978,0.1986,0.1995,0.2116,0,0,0.2022,0.2026,0,0,0,0,0,0,0,0,0.1731,0.1738,0.176,0.1762,0.1765,0.185,0.1903,0.1965,0.185,0.1812,0.1841,0.1837,0.1945,0.1956,0.1981,0.2123,0.2129,0.2023,0.2028,0.2032,0.2034,0,0,0,0,0,0,0,0.1726,0.1734,0.1805,0.1762,0.1765,0.1817,0.1821,0.1915,0.1893,0.1815,0.1814,0.1835,0.1945,0.1972,0.1984,0.2131,0.2022,0.203,0.2036,0.2039,0.2377,0.238,0,0,0,0,0,0,0.1714,0.1728,0.1801,0.1809,0.1744,0.1821,0.1826,0.1823,0.1892,0.19,0.1838,0.1833,0.1959,0.1974,0.1989,0.2104,0.2032,0.204,0.2045,0.2373,0.2378,0.2382,0,0,0,0,0,0,0.1711,0.1718,0.1796,0.1776,0.179,0.1825,0.1823,0.1827,0.1855,0.1909,0.1916,0.1862,0.1957,0.1977,0.2075,0.211,0.2044,0.2052,0.2369,0.2374,0.238,0.2355,0,0,0,0,0,0,0.1707,0.1716,0.1725,0.1774,0.1791,0.1867,0.1827,0.1832,0.1875,0.187,0.1934,0.1942,0.1956,0.2061,0.2083,0.212,0.2059,0.2364,0.2371,0.2378,0.2351,0.2359,0.2366,0,0,0,0,0,0.1703,0.1728,0.1724,0.1734,0.1795,0.1869,0.1883,0.1895,0.188,0.1905,0.1945,0.194,0.2121,0.2072,0.2097,0.2137,0.2361,0.2369,0.2377,0.2348,0.2357,0.2366,0,0,0,0,0,0,0.1704,0.1729,0.1724,0.1757,0.1809,0.1863,0.1895,0.1914,0.1969,0.1959,0.1995,0.2009,0.211,0.215,0.2094,0.2262,0.224,0.2254,0.221,0.222,0.2227,0.2199,0.2066,0,0,0,0,0,0.1709,0.1721,0.1766,0.1797,0.1814,0.186,0.1897,0.191,0.1962,0.198,0.2026,0.2091,0.2172,0.2209,0.2287,0.2389,0.2384,0.2435,0.2442,0.2447,0.2448,0.2498,0.2507,0.2409,0.2409,0.2409,0,0,0.1722,0.1738,0.1747,0.1798,0.1828,0.1879,0.1871,0.1927,0.1973,0.1996,0.207,0.2128,0.2211,0.2304,0.2353,0.2333,0.2467,0.2458,0.2461,0.2459,0.2507,0.2516,0.2523,0.2415,0.2414,0.2413,0,0,0.1751,0.176,0.1774,0.1817,0.187,0.1908,0.1927,0.1988,0.2008,0.2105,0.2127,0.2197,0.2331,0.2372,0.2418,0.253,0.2511,0.2571,0.2574,0.2623,0.2629,0.2635,0.2587,0.2589,0.2564,0.2564,0.2564,0,0.1763,0.1786,0.1802,0.1835,0.1879,0.1919,0.1967,0.2014,0.2104,0.2127,0.2125,0.2298,0.2358,0.2461,0.2491,0.2539,0.2538,0.2517,0.2624,0.2631,0.2637,0.2588,0.259,0.2564,0.2564,0.2564,0.2564,0,0.1796,0.1829,0.1849,0.189,0.1946,0.2,0.2059,0.2105,0.2141,0.2181,0.2281,0.2358,0.2443,0.249,0.2527,0.2618,0.2588,0.2625,0.2578,0.2644,0.2589,0.2591,0.2563,0.2563,0.2563,0.2564,0,0,0.1777,0.1852,0.1858,0.1897,0.1978,0.2032,0.2097,0.2172,0.2198,0.228,0.2327,0.2462,0.2472,0.2529,0.2579,0.2628,0.2654,0.2646,0.2649,0.2555,0.2695,0.2427,0.2404,0.2711,0.2713,0.2715,0.2616,0,0.1796,0.1868,0.1902,0.1997,0.2048,0.2099,0.2156,0.2224,0.227,0.2324,0.239,0.2463,0.2498,0.2529,0.2588,0.2664,0.2672,0.2673,0.2686,0.2684,0.2403,0.2403,0.2288,0.2171,0.2618,0.2618,0.2619,0,0.1807,0.1862,0.1944,0.2045,0.2065,0.212,0.2199,0.2258,0.2322,0.2347,0.2404,0.245,0.2535,0.2556,0.2652,0.2654,0.2669,0.2703,0.27,0.2462,0.2422,0.2197,0.2159,0.2137,0.2623,0.2622,0.2622,0,0.1805,0.1894,0.1964,0.2003,0.2114,0.2142,0.2192,0.2254,0.2285,0.2349,0.2358,0.2458,0.2488,0.257,0.2587,0.2648,0.2644,0.2735,0.2486,0.2465,0.2372,0.2337,0.2279,0.2778,0.2778,0.2778,0.2779,0,0.1828,0.1887,0.1958,0.2016,0.2067,0.2138,0.2184,0.2226,0.2274,0.2292,0.2359,0.2367,0.2503,0.2501,0.256,0.2462,0.2603,0.2457,0.2427,0.2353,0.2319,0.23,0.2303,0.2775,0.2775,0.2776,0.2777,0,0.1838,0.1884,0.1967,0.206,0.2078,0.2112,0.2169,0.2194,0.2225,0.2246,0.2259,0.2307,0.2275,0.2307,0.2384,0.2359,0.2246,0.2265,0.2092,0.2041,0.1795,0.18,0.1596,0.1571,0.2015,0.2007,0.2001,0,0.1858,0.191,0.1989,0.2007,0.2046,0.209,0.2113,0.2164,0.2176,0.2186,0.2187,0.214,0.2076,0.199,0.1934,0.1865,0.1933,0.1705,0.1808,0.1712,0.1704,0.1691,0.1692,0.168,0.1672,0.1665,0.166,0,0.1927,0.1941,0.2001,0.2017,0.2037,0.2053,0.208,0.2072,0.2105,0.2093,0.2022,0.1962,0.1795,0.1637,0.1467,0.1454,0.1591,0.1557,0.1577,0.1492,0.1368,0.1351,0.1757,0.16,0.1606,0.1611,0.1614,0.1616,0.1956,0.1978,0.203,0.2015,0.2027,0.1992,0.1956,0.196,0.193,0.1828,0.1849,0.1666,0.1477,0.1215,0.1161,0.0975,0.1095,0.1011,0.1038,0.1044,0.097,0.1137,0.0868,0.0869,0.0871,0.0872,0.0873,0,0.1978,0.2,0.2027,0.1989,0.194,0.1957,0.1917,0.1835,0.1728,0.1632,0.1524,0.1234,0.1011,0.0866,0.0627,0.0537,0.0617,0.0527,0.0615,0.0663,0.0927,0.0865,0.0437,0.0437,0.0437,0.0437,0.0437,0.0437,0.1993,0.2013,0.1999,0.1899,0.1853,0.175,0.1684,0.1564,0.1466,0.1199,0.0987,0.0879,0.071,0.0464,0.0294,0.0286,0.0353,0.0199,0.0304,0.0621,0.0675,0.0727,0.0674,0.0213,0.0213,0.006,0.0058,0.0057]},{"header":{"parameterUnit":"m.s-1","parameterCategory":2,"la1":30.2991,"la2":30.254,"lo1":-89.0895,"lo2":-89.0444,"dy":0.0017,"dx":0.0017,"nx":28,"ny":28,"refTime":"2023-08-17T09:00:00:Z","depth":"0","parameterNumber":3,"parameterNumberName":"V-component_of_CURRENTS"},"data":[0,0,0,0,0,0,0,0,0,0,0,0,0,0,0,0,0,0,0,0,0,0,0,0,0,0,0,0,0,0,0,0,0,0,0,0,0,0,0,0,0,0,0,0,0,0,0,0,0,0,0,0,0,0,0,0,0,0,0.0562,0.0563,0,0.0622,0.0622,0.0623,0.0628,0.0628,0.0627,0.0627,0.068,0.0682,0.0684,0,0,0,0,0,0,0,0,0,0,0,0,0,0.045,0.0452,0.0562,0.0563,0.0564,0.0622,0.0622,0.0623,0.0628,0.0628,0.0627,0.0627,0.068,0.0682,0.0684,0,0,0,0,0,0,0,0,0,0,0,0,0,0.0502,0.0453,0.0562,0.0575,0.0577,0.0622,0.0622,0.0623,0.0628,0.0628,0.0627,0.0626,0.0679,0.0682,0.0684,0.0716,0,0,0.0693,0.0694,0,0,0,0,0,0,0,0,0.0499,0.0505,0.0572,0.0574,0.0576,0.0618,0.0603,0.0655,0.0629,0.0607,0.0627,0.0626,0.0661,0.0665,0.0675,0.0718,0.0721,0.0693,0.0695,0.0696,0.0697,0,0,0,0,0,0,0,0.0495,0.0503,0.0584,0.0573,0.0576,0.0577,0.0583,0.0612,0.0635,0.0609,0.061,0.0619,0.0662,0.0673,0.0677,0.0721,0.0693,0.0696,0.0697,0.0698,0.0824,0.0825,0,0,0,0,0,0,0.0493,0.05,0.0582,0.0586,0.0537,0.058,0.0587,0.0604,0.0635,0.064,0.062,0.062,0.0668,0.0673,0.0679,0.0744,0.0696,0.0699,0.07,0.0822,0.0824,0.0826,0,0,0,0,0,0,0.049,0.05,0.058,0.0545,0.0555,0.0583,0.0602,0.0606,0.062,0.0644,0.0648,0.0631,0.0668,0.0675,0.0695,0.0744,0.07,0.0703,0.082,0.0823,0.0825,0.0857,0,0,0,0,0,0,0.0487,0.0499,0.0507,0.0545,0.0557,0.0608,0.0603,0.0607,0.0628,0.0628,0.0655,0.0659,0.0668,0.0691,0.0698,0.0747,0.0705,0.0818,0.0821,0.0824,0.0854,0.086,0.0866,0,0,0,0,0,0.0483,0.05,0.0508,0.0517,0.057,0.0609,0.0615,0.063,0.0629,0.0639,0.0647,0.0658,0.0717,0.0693,0.0701,0.0753,0.0817,0.082,0.0824,0.0851,0.0859,0.0865,0,0,0,0,0,0,0.0455,0.0504,0.0512,0.0543,0.0573,0.061,0.0619,0.0635,0.0651,0.0647,0.0664,0.0669,0.0712,0.0724,0.0698,0.08,0.0776,0.0781,0.0794,0.0801,0.0807,0.0848,0.0707,0,0,0,0,0,0.0454,0.0481,0.0523,0.0547,0.0559,0.059,0.0607,0.0622,0.0644,0.0651,0.0664,0.0692,0.0736,0.0757,0.0783,0.0831,0.0849,0.0876,0.0881,0.0886,0.0926,0.099,0.1005,0.0838,0.0838,0.0838,0,0,0.0451,0.0481,0.0496,0.0543,0.0562,0.0589,0.0598,0.0626,0.0652,0.0655,0.0678,0.0706,0.0751,0.0802,0.0825,0.0817,0.0932,0.0891,0.0895,0.0933,0.0996,0.1012,0.1027,0.0841,0.084,0.084,0,0,0.0459,0.0482,0.0505,0.0528,0.0565,0.0588,0.0598,0.0633,0.065,0.068,0.0701,0.0765,0.0793,0.0861,0.0897,0.0959,0.0956,0.0956,0.1028,0.1089,0.1103,0.1117,0.1109,0.1121,0.0966,0.0966,0.0966,0,0.045,0.0487,0.0516,0.0538,0.0559,0.0588,0.0614,0.0642,0.0677,0.0722,0.0687,0.0818,0.0841,0.0973,0.0987,0.098,0.0975,0.0992,0.1097,0.1111,0.1124,0.1113,0.1127,0.0968,0.0968,0.0968,0.0967,0,0.0475,0.0499,0.0511,0.0552,0.0578,0.0604,0.0646,0.0676,0.0696,0.075,0.0857,0.0899,0.0996,0.1012,0.1014,0.1144,0.1093,0.1088,0.1077,0.1143,0.1126,0.114,0.0971,0.097,0.0969,0.0969,0,0,0.0473,0.052,0.0524,0.0542,0.0587,0.0615,0.0664,0.0748,0.0823,0.0864,0.0979,0.1067,0.112,0.1167,0.1199,0.1257,0.1319,0.1207,0.121,0.1196,0.1393,0.1318,0.1325,0.1315,0.1319,0.1322,0.1324,0,0.0483,0.0518,0.0548,0.0586,0.0607,0.0653,0.0708,0.0791,0.0865,0.0976,0.1082,0.1187,0.1171,0.1227,0.1292,0.1324,0.1364,0.1316,0.1337,0.1338,0.1262,0.1344,0.1269,0.1264,0.1337,0.134,0.1341,0,0.0502,0.0522,0.0552,0.0616,0.0633,0.0666,0.0784,0.0839,0.1011,0.1078,0.1224,0.1299,0.1436,0.1389,0.1496,0.1453,0.1436,0.1439,0.1439,0.1383,0.1292,0.1223,0.1286,0.1334,0.1362,0.136,0.1359,0,0.049,0.0534,0.0555,0.0569,0.0642,0.0682,0.0734,0.0882,0.0967,0.1158,0.1252,0.1417,0.1498,0.1538,0.1544,0.1519,0.1618,0.1584,0.1502,0.1492,0.1449,0.1431,0.1572,0.1661,0.1661,0.1661,0.1661,0,0.0498,0.0519,0.0548,0.0562,0.0622,0.0671,0.0784,0.0874,0.1037,0.1177,0.1305,0.1435,0.1536,0.1605,0.1588,0.1585,0.1652,0.1547,0.1519,0.1449,0.1432,0.1486,0.1507,0.1661,0.1661,0.1661,0.1661,0,0.049,0.0507,0.0533,0.0588,0.0616,0.0655,0.0786,0.0894,0.1019,0.1203,0.1263,0.1459,0.1539,0.1595,0.166,0.163,0.1641,0.1605,0.1482,0.1442,0.1405,0.1428,0.1524,0.1583,0.1535,0.1533,0.1532,0,0.0495,0.0501,0.0537,0.0573,0.06,0.067,0.0757,0.0881,0.1,0.1214,0.1314,0.1446,0.1554,0.1606,0.1572,0.1537,0.1594,0.1456,0.143,0.1432,0.1439,0.1446,0.1491,0.1355,0.1352,0.135,0.1348,0,0.0507,0.0505,0.0522,0.0585,0.0654,0.074,0.0857,0.0934,0.1098,0.1222,0.138,0.1463,0.151,0.1482,0.1439,0.1411,0.1482,0.1411,0.1484,0.139,0.1344,0.1373,0.1275,0.133,0.1332,0.1333,0.1334,0.1335,0.051,0.0522,0.0552,0.0616,0.0691,0.0807,0.0881,0.1005,0.1139,0.1304,0.1373,0.1454,0.1427,0.1358,0.1338,0.1282,0.1334,0.1271,0.1314,0.1332,0.1372,0.1203,0.1187,0.1187,0.1188,0.1189,0.119,0,0.0515,0.0552,0.0611,0.0679,0.0753,0.0808,0.096,0.1027,0.1147,0.126,0.1345,0.1355,0.1291,0.127,0.1178,0.119,0.1229,0.1233,0.1264,0.1333,0.1237,0.1213,0.1118,0.1118,0.1118,0.1118,0.1118,0.1118,0.0529,0.0574,0.0611,0.0724,0.0779,0.089,0.0967,0.1053,0.1133,0.1217,0.1251,0.1299,0.1331,0.1188,0.1193,0.1217,0.1357,0.1267,0.1417,0.136,0.1368,0.1376,0.1364,0.1302,0.1302,0.1487,0.1489,0.149]}],[{"header":{"parameterUnit":"m.s-1","parameterCategory":2,"la1":30.2991,"la2":30.254,"lo1":-89.0895,"lo2":-89.0444,"dy":0.0017,"dx":0.0017,"nx":28,"ny":28,"refTime":"2023-08-17T09:00:00:Z","depth":"2","parameterNumber":2,"parameterNumberName":"U-component_of_CURRENTS"},"data":[0,0,0,0,0,0,0,0,0,0,0,0,0,0,0,0,0,0,0,0,0,0,0,0,0,0,0,0,0,0,0,0,0,0,0,0,0,0,0,0,0,0,0,0,0,0,0,0,0,0,0,0,0,0,0,0,0,0,0.1544,0.1547,0,0.1626,0.1625,0.1624,0.1531,0.153,0.1529,0.1528,0.1643,0.1647,0.1651,0,0,0,0,0,0,0,0,0,0,0,0,0,0.1421,0.1421,0.1543,0.1547,0.155,0.1627,0.1625,0.1624,0.1531,0.153,0.1529,0.1527,0.1641,0.1646,0.1651,0,0,0,0,0,0,0,0,0,0,0,0,0,0.1461,0.1421,0.1543,0.1532,0.1534,0.1627,0.1625,0.1623,0.1532,0.153,0.1528,0.1527,0.164,0.1646,0.1652,0.1724,0,0,0.1671,0.1673,0,0,0,0,0,0,0,0,0.1459,0.1462,0.153,0.1534,0.1536,0.1589,0.1626,0.1668,0.1532,0.1505,0.1528,0.1526,0.1646,0.1652,0.1633,0.173,0.1734,0.1671,0.1675,0.1678,0.1679,0,0,0,0,0,0,0,0.1456,0.1459,0.155,0.1535,0.1538,0.1566,0.1565,0.1632,0.1565,0.1507,0.1507,0.1558,0.1644,0.1627,0.1636,0.1736,0.1671,0.1677,0.168,0.1683,0.2025,0.203,0,0,0,0,0,0,0.1494,0.1456,0.1548,0.1555,0.1522,0.1571,0.1569,0.1553,0.1563,0.1571,0.156,0.1554,0.1618,0.1629,0.164,0.1746,0.1678,0.1683,0.1687,0.202,0.2026,0.2032,0,0,0,0,0,0,0.149,0.1498,0.1545,0.1532,0.1543,0.1576,0.1558,0.1556,0.1537,0.1608,0.1609,0.1547,0.1617,0.1632,0.1684,0.1749,0.1686,0.1692,0.2013,0.2022,0.2029,0.1947,0,0,0,0,0,0,0.1484,0.1494,0.1492,0.1533,0.1547,0.1571,0.1562,0.156,0.1585,0.1576,0.1599,0.1606,0.1617,0.1675,0.169,0.1757,0.1697,0.2006,0.2017,0.2026,0.1943,0.1951,0.1959,0,0,0,0,0,0.1478,0.1489,0.1488,0.1503,0.1539,0.1574,0.1577,0.1582,0.1586,0.1558,0.1588,0.1605,0.1754,0.1681,0.1699,0.1769,0.2001,0.2014,0.2026,0.194,0.195,0.1958,0,0,0,0,0,0,0.145,0.1486,0.1484,0.1507,0.153,0.1567,0.1586,0.159,0.1589,0.1603,0.1626,0.1636,0.1715,0.1778,0.1698,0.1916,0.1903,0.1919,0.1833,0.1843,0.185,0.1883,0.1702,0,0,0,0,0,0.1448,0.1448,0.1489,0.151,0.1525,0.1553,0.1576,0.1583,0.1611,0.1604,0.1641,0.172,0.1787,0.1831,0.1895,0.1995,0.201,0.2081,0.2088,0.2093,0.2145,0.2181,0.2193,0.2072,0.2072,0.2071,0,0,0.1457,0.1479,0.1484,0.1505,0.1526,0.1537,0.1551,0.1596,0.1622,0.1632,0.1678,0.1728,0.1818,0.1906,0.1959,0.1959,0.213,0.2109,0.211,0.2161,0.2194,0.2205,0.2214,0.208,0.2078,0.2077,0,0,0.1475,0.1479,0.1476,0.1485,0.154,0.1556,0.157,0.1615,0.1638,0.1698,0.173,0.1812,0.1918,0.1986,0.2037,0.2152,0.2152,0.221,0.228,0.2312,0.2319,0.2326,0.2293,0.2299,0.223,0.223,0.223,0,0.1495,0.148,0.1488,0.1487,0.1518,0.1559,0.1569,0.1605,0.1668,0.1725,0.1717,0.1905,0.1963,0.2087,0.214,0.2163,0.2161,0.2201,0.2309,0.2317,0.2326,0.2292,0.2298,0.2228,0.2228,0.2228,0.2229,0,0.1491,0.1487,0.1499,0.1491,0.1506,0.1541,0.1596,0.1646,0.1705,0.1757,0.1892,0.1965,0.2083,0.2136,0.2173,0.2309,0.2275,0.2276,0.2247,0.233,0.2292,0.2299,0.2224,0.2225,0.2226,0.2227,0,0,0.1508,0.1501,0.1497,0.1497,0.1521,0.1539,0.1607,0.1687,0.1768,0.1848,0.1952,0.2097,0.2156,0.2231,0.2295,0.2367,0.2398,0.2373,0.2375,0.2275,0.242,0.2059,0.2032,0.2394,0.2397,0.2399,0.2339,0,0.1507,0.1506,0.1499,0.1507,0.1513,0.1565,0.1622,0.1705,0.1801,0.1912,0.2037,0.2146,0.2184,0.2255,0.2328,0.2396,0.2431,0.2413,0.2419,0.242,0.2033,0.2035,0.1982,0.1895,0.2346,0.2348,0.2348,0,0.1483,0.1491,0.1504,0.1531,0.1541,0.1566,0.1682,0.174,0.1901,0.1983,0.2109,0.2187,0.233,0.2342,0.2454,0.2433,0.245,0.248,0.2476,0.219,0.2075,0.1912,0.1893,0.2361,0.236,0.2359,0.2359,0,0.1468,0.1483,0.1505,0.151,0.1555,0.161,0.1653,0.1786,0.1873,0.2039,0.2105,0.2249,0.2318,0.2391,0.2407,0.2459,0.2466,0.2522,0.2201,0.2173,0.2162,0.2124,0.2597,0.2597,0.2597,0.2597,0.2597,0,0.145,0.147,0.1519,0.1521,0.1594,0.1617,0.1735,0.1807,0.1945,0.2026,0.2144,0.2211,0.2343,0.2342,0.2391,0.2241,0.2417,0.2208,0.2138,0.2122,0.2084,0.2548,0.2544,0.2595,0.2595,0.2596,0.2596,0,0.1434,0.1457,0.1488,0.1547,0.1585,0.1638,0.1759,0.184,0.1949,0.2056,0.2098,0.2196,0.2153,0.2163,0.2229,0.2143,0.2094,0.1995,0.1903,0.1819,0.181,0.1804,0.1699,0.1686,0.1675,0.1666,0.1658,0,0.1438,0.1461,0.1505,0.1543,0.1587,0.1686,0.1752,0.1854,0.1922,0.2022,0.2047,0.2031,0.1979,0.1821,0.1718,0.1594,0.1762,0.1402,0.1496,0.1777,0.1722,0.1733,0.1742,0.147,0.1461,0.1454,0.1448,0,0.1446,0.1466,0.1485,0.1566,0.1631,0.1698,0.1786,0.1823,0.1908,0.1931,0.1908,0.1865,0.1687,0.1487,0.1215,0.1171,0.1412,0.1236,0.1614,0.1624,0.1533,0.1486,0.1509,0.1385,0.1391,0.1396,0.1399,0.1402,0.1471,0.1519,0.1534,0.1592,0.167,0.169,0.1699,0.1732,0.174,0.1683,0.1705,0.1527,0.1454,0.0988,0.0872,0.0753,0.0883,0.0889,0.0927,0.0969,0.0872,0.0757,0.0445,0.0446,0.0447,0.0448,0.0448,0,0.1512,0.1548,0.1567,0.1615,0.1641,0.1686,0.1704,0.1642,0.1551,0.1452,0.1352,0.1066,0.0852,0.077,0.0512,0.0381,0.0573,0.0343,0.0682,0.0738,0.0791,0.0703,0.0223,0.0222,0.0222,0.0221,0,0,0.1547,0.1549,0.1515,0.152,0.1592,0.1583,0.1557,0.1417,0.1314,0.1059,0.0894,0.0833,0.0767,0.0526,0.0438,0.0312,0.0556,0.028,0.0462,0.0926,0.098,0.1085,0.1002,0,0,0,0,0]},{"header":{"parameterUnit":"m.s-1","parameterCategory":2,"la1":30.2991,"la2":30.254,"lo1":-89.0895,"lo2":-89.0444,"dy":0.0017,"dx":0.0017,"nx":28,"ny":28,"refTime":"2023-08-17T09:00:00:Z","depth":"2","parameterNumber":3,"parameterNumberName":"V-component_of_CURRENTS"},"data":[0,0,0,0,0,0,0,0,0,0,0,0,0,0,0,0,0,0,0,0,0,0,0,0,0,0,0,0,0,0,0,0,0,0,0,0,0,0,0,0,0,0,0,0,0,0,0,0,0,0,0,0,0,0,0,0,0,0,0.0298,0.0299,0,0.032,0.032,0.0319,0.0297,0.0297,0.0297,0.0297,0.0245,0.0243,0.0242,0,0,0,0,0,0,0,0,0,0,0,0,0,0.0198,0.0199,0.0297,0.0299,0.03,0.032,0.032,0.0319,0.0297,0.0297,0.0297,0.0297,0.0245,0.0244,0.0242,0,0,0,0,0,0,0,0,0,0,0,0,0,0.0224,0.02,0.0297,0.0299,0.03,0.032,0.0319,0.0319,0.0297,0.0297,0.0297,0.0297,0.0246,0.0244,0.0242,0.0227,0,0,0.0235,0.0234,0,0,0,0,0,0,0,0,0.0222,0.0226,0.0297,0.0299,0.03,0.0314,0.0266,0.0288,0.0297,0.0287,0.0297,0.0297,0.0268,0.0264,0.0255,0.0225,0.0223,0.0235,0.0234,0.0233,0.0232,0,0,0,0,0,0,0,0.0221,0.0225,0.0296,0.0299,0.0301,0.0286,0.0289,0.0269,0.0268,0.0288,0.0289,0.0307,0.0266,0.0257,0.0253,0.0222,0.0235,0.0233,0.0232,0.0231,0.0324,0.0328,0,0,0,0,0,0,0.024,0.0224,0.0296,0.0298,0.0272,0.0289,0.0292,0.0302,0.027,0.0268,0.0308,0.0307,0.026,0.0256,0.0251,0.0267,0.0233,0.0231,0.0229,0.032,0.0325,0.0329,0,0,0,0,0,0,0.0237,0.0246,0.0295,0.0269,0.0276,0.0292,0.0302,0.0302,0.0294,0.0287,0.0282,0.0301,0.026,0.0254,0.0216,0.0264,0.023,0.0228,0.0316,0.0322,0.0327,0.0277,0,0,0,0,0,0,0.0234,0.0244,0.0246,0.0271,0.0279,0.0291,0.0304,0.0303,0.031,0.0309,0.028,0.0275,0.026,0.0219,0.0213,0.026,0.0226,0.0311,0.0319,0.0325,0.0273,0.028,0.0285,0,0,0,0,0,0.023,0.0239,0.0246,0.0255,0.0284,0.0291,0.0291,0.0296,0.031,0.0291,0.0273,0.0276,0.0265,0.0216,0.021,0.0258,0.0308,0.0316,0.0325,0.0271,0.0279,0.0285,0,0,0,0,0,0,0.0195,0.0239,0.0247,0.0267,0.0272,0.029,0.0292,0.0297,0.027,0.0278,0.0258,0.0251,0.0254,0.0271,0.0219,0.0324,0.0315,0.0322,0.0277,0.0284,0.0289,0.0403,0.0224,0,0,0,0,0,0.0192,0.021,0.0237,0.0251,0.026,0.0275,0.028,0.0287,0.0281,0.0271,0.0259,0.0278,0.0289,0.0289,0.0296,0.0308,0.0346,0.0367,0.0373,0.0377,0.0477,0.052,0.0537,0.0357,0.0357,0.0356,0,0,0.0187,0.0214,0.0224,0.0245,0.0257,0.0237,0.0274,0.029,0.0277,0.0269,0.0247,0.0272,0.0295,0.0314,0.0327,0.0326,0.0436,0.0387,0.0389,0.049,0.0531,0.0547,0.0563,0.0362,0.0361,0.0361,0,0,0.0182,0.0207,0.0213,0.021,0.0236,0.0229,0.0233,0.0254,0.0268,0.0245,0.0272,0.034,0.0305,0.0377,0.0397,0.0456,0.0454,0.0465,0.0581,0.0616,0.0631,0.0644,0.0639,0.0652,0.0477,0.0477,0.0477,0,0.0178,0.0185,0.0211,0.0203,0.0196,0.0218,0.0197,0.0205,0.021,0.0277,0.0236,0.0367,0.0361,0.0476,0.0512,0.0471,0.0471,0.0518,0.0618,0.0633,0.0648,0.064,0.0655,0.0476,0.0476,0.0476,0.0476,0,0.0167,0.0161,0.0167,0.015,0.0128,0.0131,0.0135,0.0163,0.0185,0.0244,0.0374,0.0402,0.0522,0.0528,0.0522,0.0676,0.0629,0.0591,0.0578,0.0661,0.0648,0.0665,0.0473,0.0474,0.0474,0.0475,0,0,0.0192,0.0169,0.0167,0.0145,0.0111,0.0097,0.0101,0.0161,0.027,0.0304,0.0459,0.0531,0.0658,0.0706,0.0747,0.0815,0.0866,0.0766,0.0768,0.0727,0.0911,0.0749,0.0751,0.0808,0.0813,0.0817,0.0828,0,0.0181,0.0157,0.0132,0.0071,0.0051,0.0063,0.0079,0.0146,0.0245,0.0402,0.0551,0.0693,0.0683,0.0785,0.0848,0.0884,0.0926,0.0868,0.0877,0.0879,0.0695,0.0773,0.07,0.0696,0.0845,0.0848,0.085,0,0.017,0.0156,0.0114,0.0082,0.0081,0.0051,0.0152,0.0178,0.0412,0.0527,0.074,0.0858,0.1041,0.099,0.1102,0.105,0.102,0.1018,0.1015,0.0929,0.0754,0.0662,0.0722,0.0879,0.0876,0.0874,0.0872,0,0.0162,0.0131,0.0101,0.008,0.0057,0.0084,0.0091,0.0267,0.0389,0.0665,0.0824,0.1022,0.115,0.1169,0.1158,0.1139,0.1222,0.1164,0.0994,0.0977,0.097,0.0945,0.1253,0.1252,0.1252,0.1252,0.1252,0,0.0128,0.0119,0.0122,0.0086,0.013,0.0105,0.0238,0.0325,0.0555,0.0753,0.0921,0.1116,0.1206,0.1257,0.121,0.1139,0.1234,0.1077,0.1002,0.0939,0.0913,0.1139,0.1126,0.1253,0.1253,0.1253,0.1253,0,0.0112,0.011,0.0098,0.0097,0.0114,0.0154,0.0274,0.0415,0.0613,0.0875,0.097,0.1211,0.1262,0.1263,0.1291,0.1194,0.1141,0.1074,0.0971,0.0885,0.0867,0.0852,0.0949,0.0944,0.094,0.0936,0.0933,0,0.0099,0.009,0.0105,0.0129,0.0132,0.0215,0.0295,0.0448,0.0614,0.0925,0.1052,0.1208,0.1305,0.1243,0.1123,0.0984,0.1027,0.0817,0.0803,0.0936,0.0852,0.0843,0.0834,0.0747,0.0743,0.074,0.0737,0,0.0055,0.0086,0.0079,0.0165,0.0221,0.0307,0.0429,0.0559,0.0773,0.0948,0.1162,0.1251,0.1231,0.1092,0.089,0.08,0.0835,0.0738,0.0953,0.0804,0.0738,0.0657,0.0657,0.0706,0.0709,0.0712,0.0713,0.0715,0.0059,0.0104,0.0124,0.0214,0.0303,0.0415,0.0503,0.0634,0.0823,0.1056,0.1129,0.1176,0.1112,0.0802,0.0697,0.0577,0.0605,0.0544,0.056,0.0578,0.0522,0.0449,0.0352,0.0353,0.0353,0.0354,0.0355,0,0.008,0.0127,0.0168,0.0292,0.0406,0.0448,0.0615,0.0696,0.0864,0.0949,0.1054,0.0897,0.0763,0.0687,0.0449,0.034,0.0416,0.0328,0.0436,0.046,0.0484,0.0431,0.0233,0.0234,0.0234,0.0235,0,0,0.0094,0.0136,0.0172,0.0352,0.0472,0.063,0.0727,0.079,0.0851,0.0846,0.0817,0.0837,0.0719,0.0539,0.0418,0.0309,0.0431,0.0307,0.039,0.0549,0.0576,0.0562,0.0498,0,0,0,0,0]}],[{"header":{"parameterUnit":"m.s-1","parameterCategory":2,"la1":30.2991,"la2":30.254,"lo1":-89.0895,"lo2":-89.0444,"dy":0.0017,"dx":0.0017,"nx":28,"ny":28,"refTime":"2023-08-17T09:00:00:Z","depth":"4","parameterNumber":2,"parameterNumberName":"U-component_of_CURRENTS"},"data":[0,0,0,0,0,0,0,0,0,0,0,0,0,0,0,0,0,0,0,0,0,0,0,0,0,0,0,0,0,0,0,0,0,0,0,0,0,0,0,0,0,0,0,0,0,0,0,0,0,0,0,0,0,0,0,0,0,0,0.0315,0.0313,0,0.0193,0.0192,0.0192,0.0266,0.0269,0.0272,0.0274,0.0074,0.0067,0.0059,0,0,0,0,0,0,0,0,0,0,0,0,0,0.0432,0.0431,0.0315,0.0313,0.0311,0.0193,0.0192,0.0191,0.0265,0.0269,0.0272,0.0276,0.0077,0.0068,0.0058,0,0,0,0,0,0,0,0,0,0,0,0,0,0.036,0.0431,0.0316,0.0329,0.0328,0.0194,0.0192,0.0191,0.0265,0.0269,0.0273,0.0277,0.008,0.0069,0.0057,-0.0104,0,0,0.002,0.0015,0,0,0,0,0,0,0,0,0.0364,0.0357,0.0329,0.0327,0.0326,0.0243,0.016,0.0086,0.0264,0.0296,0.0274,0.0279,0.0115,0.0101,0.008,-0.0114,-0.0122,0.0019,0.0012,0.0006,0.0003,0,0,0,0,0,0,0,0.0369,0.0361,0.0274,0.0326,0.0324,0.0278,0.0275,0.0146,0.0187,0.0294,0.0297,0.0271,0.0116,0.0091,0.0075,-0.0125,0.0019,0.0009,0.0001,-0.0004,-0.027,-0.027,0,0,0,0,0,0,0.0374,0.0366,0.0278,0.027,0.0348,0.0272,0.0269,0.0271,0.019,0.0181,0.0267,0.0274,0.011,0.0089,0.0068,0.0008,0.0007,-0.0005,-0.0012,-0.027,-0.027,-0.0269,0,0,0,0,0,0,0.0378,0.0369,0.0283,0.0308,0.0293,0.0267,0.0267,0.0266,0.0261,0.017,0.0161,0.0265,0.0112,0.0085,-0.0008,-0.0004,-0.001,-0.0021,-0.027,-0.027,-0.027,-0.0201,0,0,0,0,0,0,0.0382,0.0371,0.0371,0.0309,0.0292,0.0218,0.0262,0.0261,0.0233,0.0243,0.0162,0.0149,0.0114,0.001,-0.002,-0.0021,-0.003,-0.027,-0.027,-0.027,-0.0204,-0.0199,-0.0194,0,0,0,0,0,0.0387,0.0374,0.0372,0.036,0.0295,0.0216,0.0204,0.0202,0.0229,0.0217,0.0183,0.0153,-0.0007,-0.0002,-0.0037,-0.004,-0.027,-0.027,-0.027,-0.0206,-0.02,-0.0195,0,0,0,0,0,0,0.0422,0.0377,0.0375,0.035,0.0291,0.0227,0.0211,0.0193,0.0153,0.0173,0.0112,0.0092,0.0015,-0.0033,-0.0024,-0.0109,-0.0131,-0.0137,-0.0069,-0.0065,-0.0061,-0.0014,-0.004,0,0,0,0,0,0.0423,0.0413,0.0346,0.0324,0.0304,0.0254,0.0221,0.021,0.016,0.0152,0.0096,0.0045,-0.0023,-0.0053,-0.0133,-0.0216,-0.0233,-0.0225,-0.0221,-0.0216,-0.0199,-0.0199,-0.0192,-0.0268,-0.0268,-0.0268,0,0,0.0422,0.0399,0.0389,0.033,0.0299,0.022,0.025,0.0204,0.0142,0.0122,0.0048,0.0025,-0.0047,-0.0106,-0.0141,-0.0136,-0.0211,-0.0216,-0.0212,-0.0197,-0.0198,-0.019,-0.0184,-0.0268,-0.0268,-0.0268,0,0,0.039,0.0407,0.0371,0.0317,0.0254,0.0213,0.0197,0.0134,0.0133,0.0033,0.0037,0.0035,-0.0113,-0.0107,-0.014,-0.0173,-0.0204,-0.0192,-0.0121,-0.0121,-0.0114,-0.0108,-0.0145,-0.0143,-0.0167,-0.0166,-0.0166,0,0.0381,0.0335,0.0342,0.0272,0.0223,0.0205,0.0127,0.0087,0.0002,0.0026,0.0019,-0.0045,-0.011,-0.0121,-0.01,-0.0163,-0.0171,-0.0136,-0.0113,-0.0107,-0.0102,-0.0141,-0.0139,-0.0163,-0.0163,-0.0164,-0.0164,0,0.0291,0.0254,0.0231,0.0146,0.0098,0.0034,-0.0024,-0.0039,-0.0042,-0.0048,-0.0039,-0.0076,-0.0067,-0.0093,-0.0119,-0.0088,-0.0111,-0.0123,-0.012,-0.009,-0.0134,-0.0134,-0.0158,-0.0159,-0.016,-0.0161,0,0,0.0286,0.0182,0.0182,0.013,0.0033,-0.0014,-0.0077,-0.0106,-0.0075,-0.0106,-0.0053,-0.0108,-0.0008,-0.0034,-0.0023,-0.0012,-0.0001,-0.0028,-0.003,-0.0053,-0.0014,-0.0032,-0.0035,0.0008,0.0009,0.001,-0.0068,0,0.0212,0.0073,0.0052,-0.0068,-0.0148,-0.0148,-0.0187,-0.0194,-0.0166,-0.0115,-0.0057,-0.0023,-0.0025,0.0037,0.0049,0.0012,0.0009,0.002,-0.005,-0.0053,-0.0061,-0.0031,0.0014,-0.0068,-0.0068,-0.0068,-0.0068,0,0.0135,0.0051,-0.0092,-0.0142,-0.0159,-0.0205,-0.0177,-0.0217,-0.0127,-0.0074,0.0034,0.0084,0.0142,0.0124,0.0107,0.0125,0.007,0.0026,0.0021,-0.0011,-0.0068,-0.0101,-0.0067,-0.0067,-0.0067,-0.0068,-0.0068,0,0.0103,-0.0015,-0.0122,-0.0172,-0.0263,-0.0236,-0.0221,-0.0158,-0.0128,0.0005,0.0073,0.0161,0.0206,0.0183,0.0103,0.013,0.0032,0.005,-0.0032,-0.0037,-0.0028,-0.0033,0.0017,0.0017,0.0017,0.0017,0.0018,0,0.0016,-0.0064,-0.012,-0.0202,-0.022,-0.0231,-0.0176,-0.013,-0.0023,0.0031,0.014,0.0186,0.0227,0.0182,0.0118,0.0033,0.0042,-0.0011,-0.0042,-0.0004,-0.0006,-0.003,-0.0034,0.0014,0.0015,0.0016,0.0016,0,-0.0065,-0.0121,-0.0257,-0.0301,-0.0263,-0.0276,-0.0161,-0.0101,0.0001,0.0074,0.0127,0.0211,0.02,0.0159,0.0085,0.0039,-0.0046,-0.0103,-0.0098,-0.0131,-0.0111,-0.0111,-0.0121,-0.0122,-0.0123,-0.0123,-0.0124,0,-0.0153,-0.0232,-0.0313,-0.0324,-0.0335,-0.029,-0.0214,-0.0096,-0.0038,0.0056,0.0082,0.0132,0.0168,0.0065,0.0013,-0.0086,-0.0115,-0.0169,-0.0071,-0.0088,-0.0117,-0.0116,-0.0115,-0.0125,-0.0125,-0.0126,-0.0126,0,-0.0301,-0.0323,-0.0401,-0.0419,-0.0368,-0.0331,-0.021,-0.0165,-0.0049,0.002,0.0093,0.012,0.0093,0.0077,-0.002,-0.0108,-0.0111,-0.0176,-0.0172,-0.008,-0.0093,-0.0121,-0.012,-0.0129,-0.0128,-0.0128,-0.0128,0,-0.0365,-0.0423,-0.0461,-0.0465,-0.0434,-0.0356,-0.0297,-0.0175,-0.0093,0.0036,0.0024,0.0064,0.0099,0.0054,-0.0063,-0.0105,-0.0071,-0.0081,-0.0082,-0.0079,-0.0034,-0.0042,-0.0075,0,0,0,0,0,-0.0392,-0.0412,-0.0454,-0.0457,-0.0444,-0.0387,-0.0283,-0.0219,-0.0116,-0.0052,0.0015,0.0006,-0.0005,-0.0015,-0.0047,-0.01,-0.0128,-0.0147,-0.0152,-0.0144,-0.0141,-0.0093,0,0,0,0,0,0,-0.0401,-0.0451,-0.0461,-0.0435,-0.0414,-0.0351,-0.0283,-0.0215,-0.0159,-0.0074,-0.0068,-0.0016,-0.0034,0.0026,-0.0047,-0.0061,-0.0074,-0.014,-0.0141,-0.0146,-0.0143,-0.014,-0.009,0,0,0,0,0]},{"header":{"parameterUnit":"m.s-1","parameterCategory":2,"la1":30.2991,"la2":30.254,"lo1":-89.0895,"lo2":-89.0444,"dy":0.0017,"dx":0.0017,"nx":28,"ny":28,"refTime":"2023-08-17T09:00:00:Z","depth":"4","parameterNumber":3,"parameterNumberName":"V-component_of_CURRENTS"},"data":[0,0,0,0,0,0,0,0,0,0,0,0,0,0,0,0,0,0,0,0,0,0,0,0,0,0,0,0,0,0,0,0,0,0,0,0,0,0,0,0,0,0,0,0,0,0,0,0,0,0,0,0,0,0,0,0,0,0,-0.0028,-0.0028,0,0.0022,0.0023,0.0024,0.0025,0.0024,0.0023,0.0021,0.0073,0.0076,0.0079,0,0,0,0,0,0,0,0,0,0,0,0,0,-0.0062,-0.0061,-0.0028,-0.0028,-0.0028,0.0022,0.0023,0.0025,0.0025,0.0024,0.0022,0.0021,0.0073,0.0076,0.0079,0,0,0,0,0,0,0,0,0,0,0,0,0,-0.0026,-0.006,-0.0028,-0.0027,-0.0027,0.0021,0.0023,0.0025,0.0026,0.0024,0.0022,0.002,0.0072,0.0075,0.0079,0.0143,0,0,0.0091,0.0093,0,0,0,0,0,0,0,0,-0.0028,-0.0024,-0.0027,-0.0027,-0.0027,0.0009,0.003,0.0062,0.0026,0.0014,0.0021,0.0019,0.0049,0.0054,0.0079,0.0145,0.0147,0.0091,0.0094,0.0096,0.0097,0,0,0,0,0,0,0,-0.003,-0.0026,-0.0,-0.0027,-0.0027,-0.0009,-0.0006,0.0037,0.0047,0.0015,0.0013,0.0007,0.0049,0.0075,0.008,0.0148,0.0091,0.0095,0.0097,0.0099,0.0191,0.0191,0,0,0,0,0,0,-0.0052,-0.0028,-0.0002,0.0,-0.0041,-0.0008,-0.0004,0.0005,0.0047,0.0049,0.0009,0.0007,0.0069,0.0075,0.0081,0.0124,0.0096,0.0099,0.0101,0.0191,0.0191,0.0191,0,0,0,0,0,0,-0.0053,-0.005,-0.0004,-0.002,-0.0014,-0.0006,0.0005,0.0007,0.0024,0.0041,0.0044,0.0021,0.0068,0.0076,0.0132,0.0127,0.0101,0.0105,0.019,0.0191,0.0191,0.0232,0,0,0,0,0,0,-0.0054,-0.005,-0.0046,-0.0021,-0.0014,0.0029,0.0006,0.0009,0.002,0.0019,0.0053,0.0056,0.0067,0.0126,0.0136,0.0132,0.0108,0.019,0.0191,0.0191,0.0231,0.0234,0.0236,0,0,0,0,0,-0.0055,-0.0047,-0.0045,-0.0043,-0.001,0.003,0.0037,0.004,0.0023,0.0046,0.0071,0.0055,0.0131,0.0132,0.0142,0.0139,0.019,0.019,0.0191,0.0229,0.0233,0.0236,0,0,0,0,0,0,-0.006,-0.0046,-0.0044,-0.0032,-0.0002,0.0027,0.0034,0.0044,0.0084,0.0078,0.0091,0.0099,0.0139,0.0138,0.0137,0.016,0.0144,0.0147,0.0169,0.0173,0.0176,0.0152,0.0111,0,0,0,0,0,-0.0059,-0.0048,-0.0025,-0.0012,-0.0005,0.0019,0.0032,0.0045,0.0075,0.009,0.0114,0.0128,0.0152,0.0162,0.0191,0.0227,0.0204,0.0218,0.0221,0.0223,0.0208,0.0175,0.0173,0.0191,0.0191,0.0191,0,0,-0.0063,-0.005,-0.0048,-0.0013,0.0003,0.0039,0.0024,0.0051,0.0087,0.0092,0.0146,0.0157,0.0167,0.0204,0.0216,0.02,0.0212,0.0223,0.0226,0.0209,0.0175,0.0173,0.0171,0.0192,0.0192,0.0192,0,0,-0.0057,-0.0049,-0.0038,-0.0003,0.0026,0.0049,0.0056,0.0095,0.0113,0.0178,0.0172,0.0184,0.0237,0.0233,0.0238,0.0273,0.0238,0.0264,0.0255,0.0224,0.0222,0.022,0.0218,0.0215,0.0253,0.0254,0.0254,0,-0.0064,-0.0033,-0.0025,0.0009,0.0036,0.0053,0.0091,0.0124,0.0182,0.0193,0.0195,0.0229,0.0247,0.0255,0.026,0.0279,0.0259,0.0248,0.0227,0.0225,0.0222,0.0219,0.0216,0.0256,0.0255,0.0255,0.0255,0,-0.0037,-0.0006,0.0005,0.0054,0.0088,0.0127,0.0167,0.0204,0.0221,0.0239,0.026,0.028,0.028,0.0283,0.029,0.0266,0.0261,0.0247,0.022,0.0222,0.022,0.0216,0.0258,0.0258,0.0257,0.0257,0,0,-0.0061,0.0008,0.0016,0.0055,0.0121,0.0156,0.0207,0.0253,0.0262,0.03,0.0299,0.0329,0.0299,0.0298,0.0287,0.0255,0.024,0.0235,0.0233,0.0235,0.0183,0.0146,0.0138,0.0214,0.0213,0.0212,0.0201,0,-0.0038,0.0035,0.0062,0.0142,0.0185,0.0224,0.0263,0.0304,0.0323,0.033,0.0314,0.0323,0.0315,0.0306,0.027,0.0233,0.0223,0.0244,0.0177,0.0176,0.0143,0.0129,0.0208,0.0197,0.0196,0.0196,0.0195,0,-0.0013,0.004,0.0114,0.0191,0.0207,0.0248,0.0301,0.0343,0.0347,0.0356,0.0334,0.0318,0.028,0.0275,0.0206,0.0213,0.0205,0.0183,0.0182,0.0121,0.0128,0.0186,0.0186,0.0187,0.0188,0.0188,0.0189,0,-0.0013,0.0077,0.0139,0.0176,0.0257,0.0282,0.0315,0.0338,0.0366,0.0361,0.0359,0.0305,0.0278,0.0231,0.0178,0.0192,0.0093,0.0114,0.0088,0.0087,0.0108,0.011,0.0091,0.0091,0.0091,0.0091,0.0091,0,0.0016,0.0067,0.0143,0.0184,0.0244,0.0287,0.0324,0.0351,0.036,0.0356,0.0356,0.0316,0.026,0.0196,0.0162,0.0083,0.0083,0.0075,0.0068,0.0131,0.0135,0.0107,0.0109,0.0091,0.0091,0.0091,0.0091,0,0.0015,0.0065,0.0145,0.0225,0.0249,0.0292,0.0351,0.0368,0.038,0.0371,0.0373,0.0321,0.0216,0.0166,0.0079,0.0066,0.0003,-0.0003,0.007,0.0069,0.0037,0.0041,-0.0028,-0.0029,-0.0031,-0.0032,-0.0033,0,0.0025,0.0064,0.0166,0.0215,0.0253,0.0316,0.0346,0.0381,0.0387,0.0349,0.0326,0.0247,0.0196,0.005,-0.0011,-0.0069,-0.006,-0.0047,-0.0004,0.0018,0.0018,0.0025,0.0031,-0.0035,-0.0036,-0.0036,-0.0036,0,0.004,0.0069,0.0121,0.0212,0.0266,0.0339,0.0368,0.0356,0.0356,0.0386,0.0287,0.0223,0.0102,0.0002,-0.0038,-0.0081,-0.0047,-0.0062,-0.0057,-0.0017,0.0008,0.0011,0.0019,-0.0041,-0.0041,-0.004,-0.004,0,0.0031,0.0065,0.0119,0.0202,0.0284,0.0319,0.0334,0.0321,0.0325,0.0281,0.0223,0.0123,0.0077,-0.0007,-0.0074,-0.0109,-0.009,-0.0042,-0.0038,-0.0033,-0.0039,-0.0008,-0.0083,0,0,0,0,0,0.0032,0.0059,0.0116,0.0184,0.0264,0.0316,0.034,0.0336,0.0305,0.0248,0.0245,0.0134,0.0028,-0.0035,-0.0077,-0.0106,-0.0107,-0.0152,-0.0052,-0.0069,-0.0063,-0.0074,0,0,0,0,0,0,0.0026,0.007,0.0093,0.0158,0.0213,0.0276,0.0294,0.0265,0.023,0.0205,0.0137,0.0165,0.0045,0.0055,-0.0067,-0.0081,-0.0012,-0.0187,-0.0187,-0.0073,-0.0067,-0.0063,-0.0072,0,0,0,0,0]}]]